DMSP 5D-3 F17 (USA 191)

Last updated on Wed Sep 23 2026 00:03:10 GMT+0000 (Coordinated Universal Time)

1 29522U 06050A 26265.60946192 .00000099 00000+0 73570-4 0 9992 2 29522 98.7428 270.2073 0010902 133.4105 226.7978 14.15009556 26207
UTC large
Height (km)
Speed (km/s)
/
Latitude / Longitude
Inclination (degrees)
Orbital Period (minutes)
Azimuth
Elevation
Range (km)
Doppler Factor

Next 0 passes for location: London (51.5072 / 0.1276)

No passes found over London.
DMSP 5D-3 F17 (USA 191)